TimeAKDT,TemperatureF,Dew PointF,Humidity,Sea Level PressureIn,VisibilityMPH,Wind Direction,Wind SpeedMPH,Gust SpeedMPH,PrecipitationIn,Events,Conditions,WindDirDegrees,DateUTC
12:53 AM,36.0,32.0,86,29.17,10.0,WNW,19.6,25.3,N/A,,Mostly Cloudy,290,2013-10-09 08:53:00
1:53 AM,35.1,32.0,89,29.21,10.0,WNW,18.4,28.8,N/A,,Mostly Cloudy,290,2013-10-09 09:53:00
2:53 AM,34.0,32.0,92,29.25,10.0,WNW,11.5,-,N/A,,Scattered Clouds,290,2013-10-09 10:53:00
3:53 AM,34.0,30.9,89,29.29,10.0,West,17.3,-,N/A,,Scattered Clouds,280,2013-10-09 11:53:00
4:19 AM,35.6,32.0,87,29.31,10.0,WNW,17.3,24.2,N/A,,Mostly Cloudy,290,2013-10-09 12:19:00
4:53 AM,35.1,32.0,89,29.33,10.0,WNW,18.4,-,N/A,,Mostly Cloudy,290,2013-10-09 12:53:00
5:46 AM,33.8,32.0,93,29.36,10.0,WNW,13.8,20.7,0.00,,Overcast,290,2013-10-09 13:46:00
5:53 AM,34.0,32.0,92,29.37,10.0,WNW,11.5,-,0.00,Rain,Light Rain,290,2013-10-09 13:53:00
6:24 AM,33.8,30.2,87,29.38,10.0,West,12.7,-,0.00,,Mostly Cloudy,280,2013-10-09 14:24:00
6:45 AM,33.8,30.2,87,29.40,10.0,WNW,11.5,-,0.00,,Mostly Cloudy,290,2013-10-09 14:45:00
6:51 AM,33.8,30.2,87,29.40,10.0,WNW,12.7,-,0.00,,Mostly Cloudy,290,2013-10-09 14:51:00
6:53 AM,34.0,30.9,89,29.40,10.0,WNW,12.7,-,0.00,,Mostly Cloudy,290,2013-10-09 14:53:00
7:51 AM,33.8,30.2,87,29.43,10.0,WNW,9.2,-,0.00,Snow,Light Snow,290,2013-10-09 15:51:00
7:53 AM,33.1,30.9,92,29.43,10.0,WNW,8.1,-,0.00,Snow,Light Snow,300,2013-10-09 15:53:00
8:14 AM,33.8,32.0,93,29.44,9.0,Calm,Calm,-,0.00,Snow,Light Snow,0,2013-10-09 16:14:00
8:53 AM,33.1,30.9,92,29.46,10.0,WNW,6.9,-,0.00,,Overcast,290,2013-10-09 16:53:00
9:03 AM,33.8,30.2,87,29.46,10.0,West,10.4,-,N/A,,Overcast,280,2013-10-09 17:03:00
9:53 AM,33.1,30.9,92,29.48,10.0,WNW,3.5,-,N/A,,Mostly Cloudy,300,2013-10-09 17:53:00
10:53 AM,34.0,30.0,85,29.50,10.0,WNW,6.9,-,N/A,,Mostly Cloudy,290,2013-10-09 18:53:00
11:53 AM,34.0,30.0,85,29.52,10.0,West,9.2,-,N/A,,Mostly Cloudy,280,2013-10-09 19:53:00
12:53 PM,36.0,30.0,79,29.54,10.0,West,8.1,-,N/A,,Scattered Clouds,280,2013-10-09 20:53:00
1:38 PM,37.4,28.4,70,29.55,10.0,NW,6.9,-,N/A,,Mostly Cloudy,310,2013-10-09 21:38:00
1:53 PM,37.0,28.9,73,29.55,10.0,NW,8.1,-,N/A,,Mostly Cloudy,310,2013-10-09 21:53:00
2:53 PM,37.9,28.9,70,29.55,10.0,WNW,8.1,-,N/A,,Mostly Cloudy,300,2013-10-09 22:53:00
3:16 PM,39.2,28.4,65,29.54,10.0,NW,4.6,-,N/A,,Scattered Clouds,310,2013-10-09 23:16:00
3:28 PM,39.2,28.4,65,29.54,10.0,NW,6.9,-,N/A,,Mostly Cloudy,320,2013-10-09 23:28:00
3:35 PM,39.2,28.4,65,29.54,10.0,NNW,6.9,-,N/A,,Scattered Clouds,330,2013-10-09 23:35:00
3:53 PM,37.9,28.0,68,29.55,10.0,SW,9.2,-,N/A,,Scattered Clouds,230,2013-10-09 23:53:00
4:53 PM,37.0,28.0,70,29.55,10.0,SSW,5.8,-,N/A,,Mostly Cloudy,210,2013-10-10 00:53:00
5:53 PM,37.0,28.0,70,29.55,10.0,Calm,Calm,-,N/A,,Mostly Cloudy,0,2013-10-10 01:53:00
6:53 PM,37.0,28.9,73,29.54,10.0,SE,6.9,-,N/A,,Mostly Cloudy,140,2013-10-10 02:53:00
7:53 PM,34.0,28.9,82,29.52,10.0,East,5.8,-,N/A,,Mostly Cloudy,100,2013-10-10 03:53:00
8:53 PM,33.1,28.0,82,29.51,10.0,ENE,6.9,-,N/A,,Overcast,70,2013-10-10 04:53:00
9:53 PM,33.1,28.0,82,29.49,10.0,ENE,9.2,-,N/A,,Mostly Cloudy,70,2013-10-10 05:53:00
10:53 PM,33.1,28.0,82,29.46,10.0,ENE,10.4,-,N/A,,Mostly Cloudy,60,2013-10-10 06:53:00
11:53 PM,34.0,28.0,79,29.45,10.0,ENE,11.5,-,N/A,,Mostly Cloudy,60,2013-10-10 07:53:00